When you browse on this site, cookies collect data to enhance your experience and personalize the content and advertising you see.
Visit our Privacy Policy to learn more. By continuing to use the site, you agree to this use of cookies and data.
  • In United Kingdom
  • List of Countries
  • For 7 days
  • Water Temperature
  • Satellite Maps
  • Weather Map
  • Weather Widgets
  • user-avatar
    Login

    Hourly Weather Armawir

    Today, 13 December, Thursday

    Time Temperature Precipitation Wind Pressure Humidity
    00:00 +8°C° 1.5 mm 3 mps 681 mmHg 81%
    01:00 +8°C° 1.3 mm 3 mps 681 mmHg 82%
    02:00 +7°C° 1.3 mm 3 mps 681 mmHg 83%
    03:00 +7°C° 1.3 mm 3 mps 681 mmHg 85%
    04:00 +5°C° 0.4 mm 4 mps 681 mmHg 84%
    05:00 +5°C° 0.4 mm 4 mps 681 mmHg 84%
    06:00 +5°C° 0.4 mm 4 mps 681 mmHg 83%
    07:00 +5°C° 0.1 mm 4 mps 682 mmHg 80%
    08:00 +5°C° 0.1 mm 3 mps 683 mmHg 78%
    09:00 +5°C° 0.1 mm 3 mps 683 mmHg 75%
    10:00 +7°C° 0.2 mm 3 mps 684 mmHg 70%
    11:00 +7°C° 0.2 mm 4 mps 684 mmHg 66%
    12:00 +7°C° 0.2 mm 4 mps 685 mmHg 61%
    13:00 +7°C° 0 mm 4 mps 685 mmHg 59%
    14:00 +7°C° 0 mm 4 mps 685 mmHg 57%
    15:00 +6°C° 0 mm 4 mps 686 mmHg 56%
    16:00 +5°C° 0 mm 3 mps 687 mmHg 58%
    17:00 +4°C° 0 mm 3 mps 687 mmHg 60%
    18:00 +3°C° 0 mm 2 mps 688 mmHg 62%
    19:00 +3°C° 0 mm 2 mps 688 mmHg 63%
    20:00 +2°C° 0 mm 2 mps 689 mmHg 63%
    21:00 +1°C° 0 mm 2 mps 689 mmHg 64%
    22:00 +1°C° 0 mm 2 mps 690 mmHg 64%
    23:00 +1°C° 0 mm 2 mps 690 mmHg 65%

    Tomorrow, 14 December, Friday

    Time Temperature Precipitation Wind Pressure Humidity
    00:00 -1°C° 0 mm 2 mps 690 mmHg 65%
    01:00 -1°C° 0 mm 2 mps 691 mmHg 65%
    02:00 -1°C° 0 mm 2 mps 691 mmHg 65%
    03:00 -2°C° 0 mm 2 mps 691 mmHg 64%
    04:00 -2°C° 0 mm 2 mps 691 mmHg 64%
    05:00 -2°C° 0 mm 2 mps 691 mmHg 64%
    06:00 -2°C° 0 mm 2 mps 691 mmHg 64%
    07:00 -1°C° 0 mm 2 mps 691 mmHg 63%
    08:00 +1°C° 0 mm 2 mps 691 mmHg 63%
    09:00 +2°C° 0 mm 2 mps 691 mmHg 62%
    10:00 +3°C° 0.1 mm 2 mps 691 mmHg 61%
    11:00 +4°C° 0.1 mm 2 mps 690 mmHg 61%
    12:00 +5°C° 0.1 mm 2 mps 690 mmHg 60%
    13:00 +4°C° 0.2 mm 3 mps 690 mmHg 61%
    14:00 +4°C° 0.2 mm 3 mps 689 mmHg 63%
    15:00 +4°C° 0.2 mm 3 mps 689 mmHg 64%
    16:00 +5°C° 0.2 mm 2 mps 689 mmHg 67%
    17:00 +4°C° 0.2 mm 2 mps 690 mmHg 69%
    18:00 +3°C° 0.2 mm 2 mps 690 mmHg 72%
    19:00 +3°C° 0.1 mm 2 mps 690 mmHg 73%
    20:00 +3°C° 0.1 mm 2 mps 691 mmHg 73%
    21:00 +3°C° 0.1 mm 2 mps 691 mmHg 74%
    22:00 +2°C° 0.1 mm 2 mps 691 mmHg 74%
    23:00 +2°C° 0.1 mm 2 mps 692 mmHg 74%

    Day after tomorrow, 15 December, Saturday

    Time Temperature Precipitation Wind Pressure Humidity
    00:00 +2°C° 0.1 mm 2 mps 692 mmHg 74%
    01:00 +2°C° 0 mm 2 mps 692 mmHg 74%
    02:00 +1°C° 0 mm 2 mps 692 mmHg 74%
    03:00 +1°C° 0 mm 2 mps 692 mmHg 73%
    04:00 +1°C° 0 mm 2 mps 692 mmHg 73%
    05:00 -1°C° 0 mm 2 mps 692 mmHg 73%
    06:00 -1°C° 0 mm 2 mps 692 mmHg 72%
    07:00 +2°C° 0 mm 1 mps 693 mmHg 71%
    08:00 +2°C° 0 mm 1 mps 693 mmHg 69%
    09:00 +3°C° 0 mm 1 mps 693 mmHg 67%
    10:00 +4°C° 0 mm 1 mps 693 mmHg 65%
    11:00 +5°C° 0 mm 1 mps 693 mmHg 64%
    12:00 +6°C° 0 mm 1 mps 692 mmHg 62%
    13:00 +6°C° 0 mm 1 mps 692 mmHg 62%
    14:00 +6°C° 0 mm 1 mps 692 mmHg 62%
    15:00 +7°C° 0 mm 1 mps 692 mmHg 61%
    16:00 +5°C° 0 mm 1 mps 692 mmHg 62%
    17:00 +4°C° 0 mm 1 mps 692 mmHg 63%
    18:00 +3°C° 0 mm 1 mps 692 mmHg 64%
    19:00 +3°C° 0 mm 1 mps 693 mmHg 63%
    20:00 +3°C° 0 mm 1 mps 693 mmHg 63%
    21:00 +3°C° 0 mm 1 mps 693 mmHg 62%
    22:00 +2°C° 0 mm 1 mps 693 mmHg 62%
    23:00 +2°C° 0 mm 1 mps 692 mmHg 62%

    16 December, Sunday

    Time Temperature Precipitation Wind Pressure Humidity
    00:00 +2°C° 0 mm 1 mps 692 mmHg 61%
    01:00 +2°C° 0 mm 1 mps 692 mmHg 61%
    02:00 +2°C° 0 mm 1 mps 692 mmHg 61%
    03:00 +2°C° 0 mm 1 mps 692 mmHg 60%
    04:00 +2°C° 0 mm 1 mps 692 mmHg 60%
    05:00 +2°C° 0 mm 1 mps 692 mmHg 60%
    06:00 +2°C° 0 mm 1 mps 692 mmHg 59%
    07:00 +3°C° 0 mm 1 mps 692 mmHg 59%
    08:00 +4°C° 0 mm 1 mps 692 mmHg 58%
    09:00 +4°C° 0 mm 1 mps 692 mmHg 57%
    10:00 +6°C° 0 mm 1 mps 692 mmHg 56%
    11:00 +7°C° 0 mm 1 mps 692 mmHg 56%
    12:00 +7°C° 0 mm 2 mps 691 mmHg 55%
    13:00 +7°C° 0 mm 2 mps 691 mmHg 55%
    14:00 +7°C° 0 mm 2 mps 691 mmHg 54%
    15:00 +7°C° 0 mm 2 mps 690 mmHg 54%
    16:00 +6°C° 0 mm 2 mps 690 mmHg 55%
    17:00 +5°C° 0 mm 2 mps 691 mmHg 55%
    18:00 +5°C° 0 mm 1 mps 691 mmHg 56%
    19:00 +5°C° 0 mm 1 mps 691 mmHg 56%
    20:00 +5°C° 0 mm 1 mps 690 mmHg 57%
    21:00 +5°C° 0 mm 1 mps 690 mmHg 57%
    22:00 +5°C° 0 mm 1 mps 690 mmHg 57%
    23:00 +5°C° 0 mm 1 mps 690 mmHg 57%

    17 December, Monday

    Time Temperature Precipitation Wind Pressure Humidity
    00:00 +5°C° 0 mm 1 mps 690 mmHg 57%
    01:00 +5°C° 0 mm 1 mps 689 mmHg 57%
    02:00 +5°C° 0 mm 1 mps 689 mmHg 57%
    03:00 +5°C° 0 mm 1 mps 689 mmHg 57%
    04:00 +5°C° 0 mm 1 mps 688 mmHg 58%
    05:00 +5°C° 0 mm 1 mps 688 mmHg 59%
    06:00 +5°C° 0 mm 1 mps 688 mmHg 60%
    07:00 +6°C° 0 mm 1 mps 688 mmHg 61%
    08:00 +6°C° 0 mm 1 mps 688 mmHg 61%
    09:00 +7°C° 0 mm 1 mps 687 mmHg 62%
    10:00 +7°C° 0 mm 1 mps 687 mmHg 62%
    11:00 +8°C° 0 mm 1 mps 686 mmHg 62%
    12:00 +9°C° 0 mm 1 mps 686 mmHg 62%
    13:00 +9°C° 0.2 mm 1 mps 685 mmHg 64%
    14:00 +9°C° 0.2 mm 1 mps 685 mmHg 65%
    15:00 +8°C° 0.2 mm 1 mps 685 mmHg 67%
    16:00 +8°C° 0.3 mm 1 mps 685 mmHg 70%
    17:00 +7°C° 0.3 mm 1 mps 685 mmHg 72%
    18:00 +6°C° 0.3 mm 0 mps 685 mmHg 75%
    19:00 +5°C° 0.3 mm 0 mps 686 mmHg 76%
    20:00 +5°C° 0.3 mm 0 mps 686 mmHg 77%
    21:00 +5°C° 0.3 mm 0 mps 686 mmHg 78%
    22:00 +5°C° 0.2 mm 0 mps 686 mmHg 79%
    23:00 +6°C° 0.2 mm 1 mps 686 mmHg 79%

    18 December, Tuesday

    Time Temperature Precipitation Wind Pressure Humidity
    00:00 +6°C° 0.2 mm 1 mps 686 mmHg 79%
    01:00 +5°C° 0.1 mm 1 mps 685 mmHg 79%
    02:00 +5°C° 0.1 mm 1 mps 685 mmHg 79%
    03:00 +5°C° 0.1 mm 1 mps 685 mmHg 80%
    04:00 +5°C° 0.1 mm 1 mps 685 mmHg 79%
    05:00 +5°C° 0.1 mm 1 mps 685 mmHg 79%
    06:00 +4°C° 0.1 mm 1 mps 686 mmHg 78%
    07:00 +5°C° 0.1 mm 1 mps 686 mmHg 76%
    08:00 +5°C° 0.1 mm 1 mps 686 mmHg 75%
    09:00 +6°C° 0.1 mm 1 mps 687 mmHg 73%
    10:00 +7°C° 0 mm 1 mps 686 mmHg 71%
    11:00 +8°C° 0 mm 1 mps 686 mmHg 69%
    12:00 +8°C° 0 mm 1 mps 686 mmHg 68%
    13:00 +9°C° 0 mm 1 mps 686 mmHg 67%
    14:00 +9°C° 0 mm 1 mps 686 mmHg 66%
    15:00 +9°C° 0 mm 1 mps 686 mmHg 65%
    16:00 +7°C° 0 mm 1 mps 686 mmHg 67%
    17:00 +6°C° 0 mm 1 mps 687 mmHg 69%
    18:00 +5°C° 0 mm 1 mps 687 mmHg 71%
    19:00 +5°C° 0 mm 1 mps 687 mmHg 70%
    20:00 +4°C° 0 mm 1 mps 688 mmHg 70%
    21:00 +4°C° 0 mm 1 mps 688 mmHg 70%
    22:00 +4°C° 0 mm 1 mps 688 mmHg 70%
    23:00 +4°C° 0 mm 1 mps 689 mmHg 70%
    Show more